CZ-2C DEB, 40290

Orbit data source: Space-Track

CZ-2C DEB, 40290 is space debris in SSO originally from a launch on Mon, 27 Oct 2014 UTC launched from the Jiuquan Satellite Launch Center, China (JSC). Debris objects in space refer to the collection of defunct objects orbiting the Earth. Examples of debris include non-operational satellites, rocket bodies, and fragments generated from explosions, collisions, or faulty payload assembly.

Loading next visibility...
Identifier
40290, 2014-066E
Orbit
SSO
Country
Flag of CNCN / PRC
Related business
Manufacturer
CALT
Mission
Spacecraft
Bus & Motor
Unknown
Mass
1 kg wet, 1 kg dry
Launch date (UTC)
2014-10-27 (11 years ago)
Launch vehicle
Unknown
Launch site
Jiuquan Satellite Launch Center, China (JSC)
Object type
Payload
Rocket body
Debris
Shape & HBR
Cone, 0.1 m
Radar Cross Section
0.025 m², Small (<0.1 m²)

Expand to show TLE details & history
Last TLE update: 12 hours ago

TLE from 12 hours ago
0 CZ-2C DEB
1 40290U 14066E   25306.45547491  .00016313  00000-0  16569-2 0  9990
2 40290  97.9180 276.3752 0048567 221.8383 137.9118 14.90016256586104
Epoch: 2025-11-02T10:55Z
TLE epoch observation values (Epoch: 2025-11-02T10:55:53.032Z)
Latitude
-0.00003°
Longitude
70.43328°
Altitude
626.142 km
Speed
7.532 km/s
True Right ascension
18h 25m 30s
True Declination
0° 00' 00"
Sunlit
Object was in daylight at epoch
Visualization orbit readout
Latitude
Unknown
Longitude
Unknown
Altitude
Unknown
Speed
Unknown
Apparent Right ascension
Unknown
Apparent Declination
Unknown
Sunlit
N/A
Visualization observer readout
Local Sidereal Time
18:57:54
Azimuth
Unknown
Elevation
Unknown
Doppler factor
Unknown
Orbital elements
Apogee altitude
628.779 km
Perigee altitude
561.047 km
Semi-major axis
6,973.05 km
Eccentricity
0.00486
Inclination
97.918°
RAAN
276.3752°
Arg. of periapsis
221.8383°
True anomaly
138.28316°
Mean anomaly
137.9118°
Eccentric anomaly
138.09765°
Mean motion
3.72743 °/min
Orbital period
96.58 mins
BSTAR
0.0016569
Loading maneuver chart data...
Computing Atmospheric mass density...
Loading historical data...
Loading historical data...
Loading historical data...
Loading historical data...
Loading historical data...
Loading historical data...
Loading historical data...
Other satellites on launch #66 in the year 2014 (2014-10-27 UTC)

Documentation

Showing up to 5 results
|